HST,Max TemperatureF,Mean TemperatureF,Min TemperatureF,Max Dew PointF,MeanDew PointF,Min DewpointF,Max Humidity, Mean Humidity, Min Humidity, Max Sea Level PressureIn, Mean Sea Level PressureIn, Min Sea Level PressureIn, Max VisibilityMiles, Mean VisibilityMiles, Min VisibilityMiles, Max Wind SpeedMPH, Mean Wind SpeedMPH, Max Gust SpeedMPH,PrecipitationIn, CloudCover, Events, WindDirDegrees
2012-11-1,82,76,71,66,48,-10,84,47,4,30.04,29.99,29.93,10,10,10,10,5,,0.00,2,,108
2012-11-2,84,78,71,56,45,10,49,35,9,29.99,29.93,29.85,10,10,10,14,5,22,0.00,3,,141
2012-11-3,84,78,73,56,42,19,47,31,9,29.99,29.95,29.90,10,10,10,13,7,17,0.00,0,,141
2012-11-4,84,78,73,52,40,-7,46,30,4,30.00,29.96,29.93,10,10,10,13,5,16,0.00,2,,139
2012-11-5,82,76,71,50,37,-6,41,28,4,30.00,29.96,29.91,10,10,10,8,4,,0.00,0,,69
2012-11-6,82,77,72,60,43,13,52,32,8,29.99,29.94,29.89,10,10,10,8,4,,0.00,3,,360
2012-11-7,82,76,70,59,42,2,59,35,5,30.07,29.99,29.93,10,10,10,9,4,,0.00,0,,38
2012-11-8,82,76,71,58,45,4,50,37,5,30.13,30.08,30.03,10,10,10,9,4,,0.01,1,,47
2012-11-9,84,76,69,81,41,9,97,34,6,30.12,30.07,30.01,10,10,10,12,5,,0.00,1,,89
2012-11-10,84,76,68,74,56,36,100,53,29,30.10,30.05,29.99,10,10,10,12,5,,0.00,1,,24
2012-11-11,84,76,69,73,54,38,97,49,30,30.10,30.04,29.99,10,10,10,9,5,,0.00,1,,16
2012-11-12,82,73,64,57,46,40,59,36,26,30.15,30.09,30.04,10,10,10,13,4,,0.00,0,,3
2012-11-13,86,78,69,73,55,41,100,50,28,30.15,30.10,30.04,10,10,10,15,5,25,0.00,2,,48
2012-11-14,84,77,69,82,65,53,100,67,52,30.16,30.12,30.06,10,10,10,12,4,17,0.00,1,,158
2012-11-15,82,74,66,81,68,56,97,79,63,30.15,30.11,30.04,10,10,10,13,3,,0.00,1,,203
2012-11-16,82,74,66,62,57,49,87,56,39,30.13,30.09,30.04,10,10,10,10,3,,0.00,3,,34
2012-11-17,80,74,68,69,58,49,87,57,40,30.13,30.07,30.03,10,10,10,8,4,,0.00,4,,97
2012-11-18,81,75,69,81,69,56,100,80,53,30.13,30.08,30.02,10,10,10,9,4,,0.00,2,,44
2012-11-19,82,76,69,76,67,56,100,78,49,30.11,30.07,30.01,10,10,10,9,4,,0.00,1,,30
2012-11-20,81,76,70,77,66,58,100,75,48,30.08,30.03,29.97,10,10,10,8,4,,0.00,1,,52
2012-11-21,79,72,66,77,67,56,100,80,57,30.01,29.96,29.91,10,10,10,9,5,,0.00,1,,44
2012-11-22,81,74,68,73,62,54,81,63,43,29.98,29.93,29.87,10,10,10,10,5,,0.00,1,,143
2012-11-23,80,76,71,80,69,61,100,83,64,30.00,29.95,29.91,10,10,6,15,5,,0.14,2,Rain,127
2012-11-24,82,76,69,75,63,51,100,68,38,30.01,29.97,29.92,10,10,10,12,4,,0.00,0,,115
2012-11-25,82,76,70,70,63,56,100,68,41,30.04,29.99,29.93,10,10,10,24,6,31,0.00,1,,36
2012-11-26,82,74,66,68,57,51,93,57,38,30.10,30.04,30.00,10,10,10,20,6,30,0.00,3,,30
2012-11-27,82,74,66,63,55,51,62,53,46,30.13,30.07,29.99,10,10,10,15,6,23,0.00,4,,47
2012-11-28,79,72,66,62,57,53,73,58,48,30.08,30.03,29.96,10,10,10,10,4,,0.00,4,,33
2012-11-29,81,76,70,75,64,56,91,68,53,30.06,30.02,29.96,10,10,10,9,5,,0.00,2,,142
2012-11-30,82,77,72,74,65,60,97,67,50,30.06,30.02,29.97,10,10,10,14,7,20,0.00,2,,146